Weather History for Manistique, MI

Change the Weather History Date:

Wednesday, June 18, 2014

  Actual Average Record
Temperature  
Mean Temperature 64 °F -  
Max Temperature 73 °F 69 °F 83 °F (1952)
Min Temperature 56 °F 50 °F 30 °F (1972)
Growing Degree Days 14 (Base 50)    
Moisture  
Dew Point 57 °F    
Average Humidity 83    
Maximum Humidity 96    
Minimum Humidity 67    
Precipitation  
Precipitation 0.00 in - - ()
Sea Level Pressure  
Sea Level Pressure 30.01 in    
Wind  
Wind Speed 5 mph (NE)    
Max Wind Speed 9 mph    
Max Gust Speed -    
Visibility 10 miles    
Events Rain    
Averages and records for this station are not official NWS values.
T = Trace of Precipitation, MM = Missing Value Source: NWS Daily Summary

Daily Weather History Graph

Daily Weather History Graph

Search for Another Location

Airport:

Trip Planner

Search our weather history database for the weather conditions in past years. The results will help you decide how hot, cold, wet, or windy it might be!

Date:

Astronomy

Jun. 18, 2014 Rise Set
Actual Time 5:53 AM EDT 9:38 PM EDT
Civil Twilight 5:14 AM EDT 10:16 PM EDT
Nautical Twilight 4:23 AM EDT 11:08 PM EDT
Astronomical Twilight 3:10 AM EDT 12:21 AM EDT
Moon 12:49 AM EDT (6/18) 12:35 PM EDT (6/18)
Length of Visible Light 17h 01m
Length of Day
15h 44m
Waning Gibbous, 63% of the Moon is Illuminated
Jun 18
Waning Gibbous
Jun 19
Last Quarter
Jun 27
New
Jul 5
First Quarter
Jul 12
Full

Hourly Weather History & Observations

Time (EDT) Temp. Dew Point Humidity Pressure Visibility Wind Dir Wind Speed Gust Speed Precip Events Conditions
12:15 AM 60.3 °F 57.6 °F 91% 29.95 in 10.0 mi NW 8.1 mph - N/A   Clear
12:35 AM 60.8 °F 57.7 °F 90% 29.95 in 10.0 mi NNW 4.6 mph - N/A   Mostly Cloudy
12:55 AM 60.1 °F 57.4 °F 91% 29.95 in 10.0 mi NNW 5.8 mph - N/A   Mostly Cloudy
1:14 AM 59.9 °F 57.6 °F 92% 29.95 in 10.0 mi North - - N/A   Mostly Cloudy
1:35 AM 60.4 °F 57.6 °F 90% 29.95 in 10.0 mi NNW 5.8 mph - N/A   Overcast
1:55 AM 60.8 °F 57.6 °F 89% 29.95 in 10.0 mi NW 8.1 mph - N/A   Overcast
2:14 AM 60.4 °F 57.2 °F 89% 29.95 in 10.0 mi NNW 6.9 mph - N/A   Overcast
2:35 AM 60.1 °F 56.8 °F 89% 29.95 in 10.0 mi NW 6.9 mph - N/A   Overcast
2:55 AM 59.5 °F 56.5 °F 90% 29.96 in 10.0 mi Calm Calm - N/A   Overcast
3:14 AM 59.5 °F 55.9 °F 88% 29.95 in 10.0 mi NNW 6.9 mph - N/A   Overcast
3:35 AM 59.0 °F 55.6 °F 88% 29.95 in 10.0 mi North - - N/A   Overcast
3:55 AM 58.5 °F 55.4 °F 90% 29.95 in 10.0 mi North - - N/A   Overcast
4:15 AM 59.0 °F 54.1 °F 84% 29.95 in 10.0 mi NNW 5.8 mph - N/A   Overcast
4:35 AM 58.6 °F 53.8 °F 84% 29.94 in 10.0 mi North 6.9 mph - N/A   Overcast
4:54 AM 58.8 °F 53.8 °F 83% 29.95 in 10.0 mi North - - N/A   Overcast
5:15 AM 58.5 °F 53.8 °F 84% 29.94 in 10.0 mi Calm Calm - N/A   Overcast
5:35 AM 58.5 °F 53.6 °F 84% 29.95 in 10.0 mi North - - N/A   Overcast
5:54 AM 58.3 °F 54.0 °F 86% 29.96 in 10.0 mi Calm Calm - N/A   Overcast
6:15 AM 58.1 °F 53.6 °F 85% 29.98 in 10.0 mi North - - N/A   Overcast
6:34 AM 57.7 °F 54.3 °F 88% 29.99 in 10.0 mi Calm Calm - N/A Rain Light Rain
6:55 AM 57.7 °F 54.3 °F 88% 30.00 in 10.0 mi North - - N/A   Overcast
7:15 AM 57.7 °F 54.1 °F 88% 29.98 in 10.0 mi NW 4.6 mph - N/A Rain Light Rain
7:34 AM 58.1 °F 53.8 °F 86% 29.98 in 10.0 mi NW 4.6 mph - N/A   Overcast
7:55 AM 58.1 °F 54.7 °F 88% 30.01 in 10.0 mi SSW 9.2 mph - N/A   Overcast
8:15 AM 56.7 °F 55.0 °F 94% 30.01 in 10.0 mi SSW 5.8 mph - N/A   Overcast
8:35 AM 57.2 °F 55.2 °F 93% 30.00 in 10.0 mi SW 6.9 mph - N/A   Mostly Cloudy
8:55 AM 57.7 °F 55.6 °F 92% 30.00 in 10.0 mi Calm Calm - N/A   Mostly Cloudy
9:14 AM 59.0 °F 55.6 °F 88% 30.01 in 10.0 mi Calm Calm - N/A   Scattered Clouds
9:35 AM 61.0 °F 55.8 °F 83% 30.01 in 10.0 mi NNE 4.6 mph - N/A   Mostly Cloudy
9:55 AM 62.8 °F 56.7 °F 80% 30.02 in 10.0 mi North - - N/A   Mostly Cloudy
10:14 AM 63.5 °F 56.5 °F 78% 30.01 in 10.0 mi NNE 5.8 mph - N/A   Scattered Clouds
10:35 AM 65.1 °F 57.0 °F 75% 30.01 in 10.0 mi North 9.2 mph - N/A   Scattered Clouds
10:55 AM 65.5 °F 57.2 °F 75% 30.00 in 10.0 mi North - - N/A   Scattered Clouds
11:15 AM 66.2 °F 57.4 °F 73% 30.00 in 10.0 mi NE 4.6 mph - N/A   Mostly Cloudy
11:35 AM 66.9 °F 57.7 °F 72% 30.01 in 10.0 mi ESE 3.5 mph - N/A   Overcast
11:54 AM 66.9 °F 58.1 °F 73% 30.02 in 10.0 mi North - - N/A   Overcast
12:15 PM 60.6 °F 55.4 °F 83% 30.03 in 10.0 mi ESE 8.1 mph - N/A   Overcast
12:35 PM 61.9 °F 55.2 °F 79% 30.04 in 10.0 mi North - - N/A   Overcast
12:54 PM 61.2 °F 54.1 °F 78% 30.04 in 10.0 mi North - - N/A   Overcast
1:15 PM 61.0 °F 54.0 °F 78% 30.04 in 10.0 mi ESE 8.1 mph - N/A   Overcast
1:35 PM 60.1 °F 54.1 °F 81% 30.03 in 10.0 mi SE 5.8 mph - N/A   Overcast
1:54 PM 59.4 °F 54.3 °F 83% 30.03 in 10.0 mi SE 4.6 mph - N/A   Overcast
2:15 PM 60.1 °F 54.7 °F 82% 30.02 in 10.0 mi Calm Calm - N/A   Overcast
2:35 PM 62.2 °F 55.2 °F 78% 30.01 in 10.0 mi North - - N/A   Overcast
2:55 PM 67.5 °F 58.8 °F 74% 30.00 in 10.0 mi North - - N/A   Mostly Cloudy
3:15 PM 71.8 °F 60.1 °F 67% 30.00 in 10.0 mi SSW 8.1 mph - N/A   Scattered Clouds
3:34 PM 70.5 °F 59.7 °F 69% 30.00 in 10.0 mi North - - N/A   Clear
3:55 PM 72.1 °F 60.4 °F 67% 30.00 in 10.0 mi North - - N/A   Mostly Cloudy
4:15 PM 73.0 °F 61.5 °F 67% 30.00 in 10.0 mi Calm Calm - N/A   Mostly Cloudy
4:34 PM 68.5 °F 58.5 °F 70% 30.00 in 10.0 mi North - - N/A   Scattered Clouds
4:55 PM 70.7 °F 59.9 °F 69% 30.01 in 10.0 mi SSE 3.5 mph - N/A   Scattered Clouds
5:15 PM 70.0 °F 58.5 °F 67% 30.01 in 10.0 mi North - - N/A   Scattered Clouds
5:34 PM 68.7 °F 58.3 °F 69% 30.02 in 10.0 mi North - - N/A   Mostly Cloudy
5:55 PM 65.3 °F 57.4 °F 76% 30.04 in 10.0 mi North - - N/A   Overcast
6:14 PM 64.0 °F 57.7 °F 80% 30.05 in 10.0 mi North - - N/A   Overcast
6:35 PM 64.4 °F 58.3 °F 80% 30.05 in 10.0 mi North - - N/A   Overcast
6:54 PM 64.4 °F 58.8 °F 82% 30.06 in 10.0 mi North - - N/A   Mostly Cloudy
7:15 PM 68.7 °F 60.6 °F 75% 30.06 in 10.0 mi SE 4.6 mph - N/A   Scattered Clouds
7:35 PM 68.9 °F 60.3 °F 74% 30.06 in 10.0 mi East 6.9 mph - N/A   Scattered Clouds
7:54 PM 68.9 °F 60.3 °F 74% 30.06 in 10.0 mi ESE 6.9 mph - N/A   Scattered Clouds
8:15 PM 67.1 °F 59.9 °F 78% 30.07 in 10.0 mi SSE 6.9 mph - N/A   Mostly Cloudy
8:35 PM 66.4 °F 59.9 °F 80% 30.08 in 10.0 mi SSE 6.9 mph - N/A   Scattered Clouds
8:54 PM 65.7 °F 59.5 °F 81% 30.08 in 10.0 mi ESE 5.8 mph - N/A   Clear
9:15 PM 64.9 °F 59.2 °F 82% 30.08 in 10.0 mi East 5.8 mph - N/A   Clear
9:34 PM 63.0 °F 58.8 °F 86% 30.08 in 10.0 mi ENE 4.6 mph - N/A   Clear
9:55 PM 62.2 °F 59.0 °F 89% 30.07 in 10.0 mi NNE 5.8 mph - N/A   Clear
10:15 PM 61.9 °F 58.5 °F 89% 30.08 in 10.0 mi NE 4.6 mph - N/A   Clear
10:34 PM 59.5 °F 57.2 °F 92% 30.09 in 10.0 mi Calm Calm - N/A   Clear
10:55 PM 58.8 °F 57.4 °F 95% 30.10 in 10.0 mi North - - N/A   Clear
11:15 PM 57.6 °F 56.3 °F 96% 30.11 in 10.0 mi North - - N/A   Clear
11:34 PM 58.3 °F 56.8 °F 95% 30.11 in 10.0 mi North - - N/A   Clear
11:55 PM 57.9 °F 56.7 °F 96% 30.12 in 10.0 mi North - - N/A   Clear